Location: ???? ????
(41.4149°N, 22.8816°E)
Time: 14:27:19
(UTC+00:00)

Spot 1 - Pass Details

Date: 14 July 2020
Orbit: 575 x 777 km, 98.7° (Epoch: 03 August)

Event Time Altitude Azimuth Distance (km) Brightness Sun altitude
Exits shadow 00:09:48 60° 241° (WSW) 825 4.3 -23.2°
Maximum altitude 00:10:04 61° 258° (WSW) 815 4.4 -23.2°
Drops below altitude 10° 00:14:45 10° 339° (NNW) 2,149 7.4 -22.8°
Sets 00:16:58 0° 343° (NNW) 3,037 8.3 -22.6°
